This is the latest recevied weather packets stored in our database for station/object DJ2KUA-6. If no packets are shown the sender has not sent any weather packets the latest 10 day(s).
| Time | Temp. | Humidity | Pressure | Rain* | Wind** | Luminosity | Snow |
|---|---|---|---|---|---|---|---|
| 1788344698 | 22.78° C | 61% | 1074 hPa | 0 mm | - | - | - |
| 1788343558 | 23.33° C | 60% | 1074 hPa | 0 mm | - | - | - |
| 1788342418 | 22.78° C | 62% | 1074 hPa | 0 mm | - | - | - |
| 1788341279 | 22.78° C | 63% | 1074 hPa | 0 mm | - | - | - |
| 1788338996 | 21.67° C | 68% | 1074 hPa | 0 mm | - | - | - |
| 1788337857 | 21.11° C | 72% | 1074 hPa | 0 mm | - | - | - |
| 1788336720 | 18.33° C | 77% | 1074 hPa | 0 mm | - | - | - |
| 1788335578 | 17.78° C | 80% | 1074 hPa | 0 mm | - | - | - |
| 1788334437 | 17.22° C | 80% | 1073 hPa | 0 mm | - | - | - |
| 1788333297 | 17.22° C | 80% | 1073 hPa | 0 mm | - | - | - |
| 1788332161 | 16.67° C | 83% | 1073 hPa | 0 mm | - | - | - |
| 1788331019 | 15.56° C | 84% | 1073 hPa | 0 mm | - | - | - |
| 1788329919 | 13.89° C | 85% | 1073 hPa | 0 mm | - | - | - |
| 1788329885 | 13.89° C | 85% | 1073 hPa | 0 mm | - | - | - |
| 1788328771 | 13.89° C | 85% | 1074 hPa | 0 mm | - | - | - |
| 1788328739 | 13.89° C | 85% | 1074 hPa | 0 mm | - | - | - |
| 1788327599 | 13.89° C | 85% | 1073 hPa | 0 mm | - | - | - |
| 1788326458 | 13.33° C | 85% | 1073 hPa | 0 mm | - | - | - |
| 1788321899 | 13.89° C | 85% | 1073 hPa | 0 mm | - | - | - |
| 1788320758 | 13.33° C | 85% | 1073 hPa | 0 mm | - | - | - |
| 1788319618 | 13.33° C | 85% | 1073 hPa | 0 mm | - | - | - |
| 1788318477 | 13.33° C | 84% | 1073 hPa | 0 mm | - | - | - |
| 1788317360 | 13.89° C | 83% | 1073 hPa | 0 mm | - | - | - |
| 1788316200 | 13.33° C | 84% | 1073 hPa | 0 mm | - | - | - |
| 1788315060 | 13.89° C | 84% | 1073 hPa | 0 mm | - | - | - |
* Rain latest hour (hover to see other rain measurements)
** Current wind speed in m/s (hover to see current wind gust speed)